Regional Weather Roundup
Issued by NWS

Home | Current Version | Previous Version | Graphics & Text | Print | Product List | Glossary On
Versions: 1 2 3 4 5 6 7 8 9 10 11 12 13 14 15 16 17 18 19 20 21 22 23 24 25 26 27 28 29 30 31 32 33 34 35 36 37 38 39 40 41 42 43 44 45 46 47 48 49 50
000
ASUS43 KFSD 170002
RWRSD

WEATHER ROUNDUP FOR SOUTH DAKOTA
NATIONAL WEATHER SERVICE SIOUX FALLS SD
600 PM CST SAT DEC 16 2017

NOTE: "FAIR" INDICATES FEW OR NO CLOUDS BELOW 12,000 FEET WITH NO
SIGNIFICANT WEATHER AND/OR OBSTRUCTIONS TO VISIBILITY.


SDZ001>005-009-010-012>017-170100-
NORTHWEST AND NORTH CENTRAL SOUTH DAKOTA

CITY           SKY/WX    TMP DP  RH WIND       PRES   REMARKS
BUFFALO          N/A     33  23  66 N8        29.94R WCI  26
FAITH            N/A     33  27  78 MISG      29.99R
MOBRIDGE       MOCLDY    35  29  78 CALM      29.97R
$$

SDZ012>016-024>037-041>051-057-063-072>074-170100-
SOUTHWEST AND SOUTH CENTRAL SOUTH DAKOTA

CITY           SKY/WX    TMP DP  RH WIND       PRES   REMARKS
RAPID CTY ARPT CLOUDY    34  26  72 NW9       29.99R WCI  27
PIERRE         MOCLDY    33  30  88 N7        29.99R WCI  27
CUSTER         LGT SNOW  27  22  81 NE7       29.91R WCI  19
ELLSWORTH AFB  CLOUDY    34  27  75 N10       29.98R WCI  26
PHILIP         CLOUDY    36  30  79 N6        30.00R
PINE RIDGE     CLOUDY    34  27  75 N3        29.97R
SPEARFISH      MOCLDY    30  27  86 W3        29.99R
WINNER         CLOUDY    38  32  79 N5        29.99R
$$

SDZ004>011-016>023-039-040-170100-
NORTHEAST SOUTH DAKOTA

CITY           SKY/WX    TMP DP  RH WIND       PRES   REMARKS
ABERDEEN       CLOUDY    35  29  78 NE3       29.99R
WATERTOWN      CLOUDY    32  30  92 N6        29.97R WCI  26
BROOKINGS      CLOUDY    36  31  82 NE3       29.98R
SISSETON         N/A     33  30  88 NE6       30.00R WCI  28
$$

SDZ017-020-022-023-036>040-048>070-170100-
SOUTHEAST SOUTH DAKOTA

CITY           SKY/WX    TMP DP  RH WIND       PRES   REMARKS
SIOUX FALLS    PTCLDY    34  30  85 NE6       29.97R WCI  29
HURON          CLOUDY    38  33  82 NE3       29.99R
CHAMBERLAIN    PTCLDY    40  34  79 N5        29.99R
MITCHELL       CLOUDY    38  33  82 N7        30.00R
YANKTON        CLOUDY    37  32  82 N5        29.97R
$$

ABBREVIATIONS USED IN REMARKS
   TC - TEMPERATURE IN CELSIUS
  WCI - WIND CHILL INDEX
   HX - HEAT INDEX
  VSB - VISIBILITY




USA.gov is the U.S. government's official web portal to all federal, state and local government web resources and services.